Lid_Strength_Index
3 3 3 3 4 5 6 8 8 9 9 9 9 9 9 9 9 8 6 6 5 3 2 2 1 1 1 -0 -0 1 1 1 2 1 1 1 1 0 0 -0 -1 -1 -1
3 4 4 4 5 7 8 8 8 9 9 9 10 10 10 9 9 9 7 5 5 4 3 2 1 1 0 2 3 1 2 3 3 2 2 2 2 2 1 1 1 1 0
4 5 5 6 7 8 8 9 9 9 9 10 10 10 10 10 9 9 8 6 4 4 3 2 1 1 2 3 3 1 3 4 3 3 3 3 2 2 1 2 2 1 1
5 5 6 7 8 9 9 9 10 10 9 10 10 10 10 10 10 10 9 6 6 5 6 6 5 4 5 5 4 3 4 4 4 4 4 3 3 3 3 2 2 2 1
5 6 6 7 8 9 10 10 10 10 10 10 10 10 10 10 10 10 9 8 8 8 8 10 9 8 7 5 5 5 5 5 5 5 4 5 4 4 4 3 3 3 2
6 7 7 8 9 9 10 10 11 11 10 10 12 11 11 10 11 10 10 10 11 11 11 11 10 10 9 7 6 6 5 5 6 6 6 6 6 5 5 4 4 4 3
6 7 8 9 10 10 10 10 10 11 12 11 11 12 12 11 12 11 11 11 12 12 12 11 11 10 9 8 7 6 6 6 7 7 7 7 6 6 6 5 5 5 4
6 7 8 9 10 10 11 11 11 12 11 11 11 11 13 13 12 12 12 12 12 12 12 12 12 12 10 8 7 8 8 8 8 8 8 8 8 7 7 6 6 5 5
7 8 8 8 9 10 11 10 11 11 12 12 11 10 13 12 13 13 13 13 13 13 13 13 13 12 11 9 9 11 11 11 10 10 9 9 8 8 7 7 6 6 6
8 8 8 8 9 9 10 10 11 10 10 12 12 12 12 11 12 14 13 13 13 14 13 13 13 13 12 10 11 13 13 12 12 11 11 10 9 9 8 8 7 7 6
8 9 9 9 9 9 9 10 11 11 10 10 11 13 13 13 12 11 14 14 13 13 13 13 13 13 12 11 11 14 14 13 13 13 12 11 11 10 9 8 8 7 7
10 9 9 9 10 10 10 10 11 11 11 11 11 12 12 13 13 13 12 13 14 14 13 13 13 13 12 12 13 15 15 15 14 13 13 12 12 11 10 9 8 8 7
10 10 10 10 10 10 10 10 11 11 11 11 11 11 11 10 11 11 12 13 14 14 14 13 13 13 13 12 14 16 17 16 15 14 13 13 12 11 11 10 9 9 9
10 10 10 11 11 11 11 11 12 12 12 12 12 11 11 11 11 12 12 13 15 15 15 15 13 13 13 13 14 17 15 17 15 14 13 13 13 12 12 11 10 10 9
10 10 10 11 11 11 12 12 12 13 12 12 11 11 12 11 12 12 12 11 12 15 16 15 15 13 13 14 14 15 15 16 15 14 14 14 13 12 12 11 11 10 9
10 11 11 11 11 11 12 12 13 12 12 12 12 12 12 12 12 12 12 12 12 11 13 14 15 14 14 15 15 16 15 17 15 15 15 14 14 13 12 11 11 10 10
11 11 11 12 12 12 12 13 13 13 13 13 13 13 13 13 13 13 13 13 14 13 13 16 15 15 15 16 17 16 16 16 15 16 15 14 14 13 13 12 11 10 9
11 12 12 12 12 12 12 12 13 13 13 13 13 14 14 15 14 14 14 14 14 15 14 17 17 17 17 16 16 17 17 17 16 16 15 14 14 13 13 12 11 10 10
12 12 13 13 13 12 12 12 12 12 13 13 13 14 14 15 15 15 15 15 15 16 15 15 18 18 18 17 17 17 17 16 16 16 15 14 14 14 13 12 11 11 11
13 13 13 13 13 12 12 13 13 13 13 14 13 14 15 15 15 15 15 15 15 15 15 16 16 18 18 18 17 17 18 16 16 16 15 15 15 14 13 12 12 12 12
14 14 14 14 13 13 13 13 14 14 13 14 14 14 15 15 15 14 15 15 15 15 16 16 17 18 19 19 19 17 17 16 16 16 16 15 14 14 13 13 13 13 13
14 14 15 15 15 14 13 12 13 14 14 14 15 15 15 15 15 13 13 13 14 16 16 17 17 18 18 18 17 17 17 18 17 15 16 16 14 15 14 13 13 12 12
12 13 13 14 14 14 13 12 12 14 15 15 15 15 15 16 16 15 13 13 14 13 14 15 17 17 17 17 17 18 18 18 17 16 17 17 16 16 15 14 13 13 12
14 13 12 13 13 13 12 12 12 13 14 14 14 14 15 15 16 16 15 15 15 15 15 16 15 16 16 16 16 17 17 17 16 17 17 20 16 15 15 14 13 13 13
14 13 12 12 13 13 12 12 12 13 13 14 14 14 14 15 15 14 16 16 16 16 15 15 15 15 15 15 16 16 18 19 19 19 18 19 17 18 17 16 14 13 13
14 13 13 12 13 13 13 12 12 13 13 13 14 14 14 15 14 14 15 16 17 17 17 17 17 16 15 15 15 16 16 19 20 21 18 20 18 18 19 16 16 15 15